Wind_Speed
9 8 8 8 7 7 6 6 5 5 5 6 6 6 5 5 5 4 4 4 4 4 4 4 4 4 4 3 3 3 4 4 4 4 4 4 3 3 4 6 6 6 7
9 9 9 8 8 7 7 6 6 5 5 5 5 4 4 3 3 3 2 2 3 3 3 3 3 3 2 2 2 2 2 3 3 3 3 3 3 3 4 5 6 6 6
9 9 9 8 8 8 8 7 6 6 5 5 4 4 3 2 1 1 1 1 2 2 2 2 2 2 2 1 1 1 1 1 1 2 2 2 2 3 4 4 6 6 6
10 9 8 8 9 9 8 8 7 6 5 5 4 3 2 2 1 0 1 1 2 2 2 2 2 2 2 1 1 0 0 1 1 2 2 2 2 3 4 4 5 5 6
11 10 9 9 9 9 9 8 8 7 6 5 4 3 3 2 1 1 2 2 2 2 3 3 3 3 2 2 2 1 1 2 2 3 3 3 3 3 4 4 5 6 6
12 11 10 10 10 10 9 9 8 7 6 5 5 4 3 3 2 3 3 3 4 4 4 4 4 4 4 3 3 3 3 3 4 4 4 4 4 4 5 5 6 6 6
13 12 11 11 11 10 10 10 9 8 7 6 5 5 4 4 4 4 5 5 5 5 5 5 6 6 6 5 5 5 5 5 5 5 5 5 5 4 5 6 7 7 7
13 12 12 12 12 11 11 11 10 9 7 7 6 5 5 5 5 6 6 6 6 6 7 7 7 7 7 7 7 7 7 7 7 7 7 7 6 6 6 6 7 8 8
14 14 13 13 13 12 12 11 10 9 8 7 7 6 6 6 7 7 7 7 8 8 8 9 9 8 8 7 7 8 8 9 9 9 9 9 9 8 8 8 8 9 9
16 15 15 15 14 13 12 11 10 9 8 8 7 7 7 8 8 8 8 8 9 9 9 10 9 9 9 8 8 8 8 9 10 11 11 11 11 10 10 10 10 10 11
17 17 17 16 15 14 13 11 10 9 9 8 8 8 8 9 9 9 9 10 10 10 10 9 9 9 9 8 8 8 8 9 11 12 12 12 12 12 12 11 11 12 12
19 19 19 18 17 15 13 12 11 10 10 9 9 9 9 9 9 9 9 10 10 9 9 9 9 8 8 8 8 8 8 9 10 12 13 13 13 13 13 13 13 13 14
21 21 20 20 18 15 13 12 11 11 10 9 9 9 9 9 8 9 9 9 9 9 9 9 8 8 8 9 8 9 9 10 11 11 12 13 14 14 14 15 14 14 15
21 22 21 20 18 15 13 12 11 11 10 9 9 8 8 8 7 8 8 8 8 8 8 8 8 8 8 9 9 9 10 11 12 12 12 13 15 16 16 17 16 15 16
22 22 21 21 19 15 14 13 12 10 9 9 8 7 7 7 7 7 7 8 8 8 8 8 8 8 8 8 8 9 9 10 12 12 12 13 15 16 17 17 17 16 17
23 23 22 21 19 16 14 12 11 10 9 7 6 6 6 6 6 7 7 8 8 8 8 8 8 8 8 8 8 9 10 10 11 11 12 13 14 15 16 17 17 17 17
25 24 22 21 19 17 14 12 11 9 7 6 6 5 5 5 6 6 7 7 8 8 8 8 8 8 8 8 8 8 8 10 10 11 12 13 13 14 15 16 17 16 16
25 24 23 22 19 16 14 11 9 8 6 5 4 4 4 4 5 5 5 6 7 7 7 7 7 7 7 7 8 8 8 9 10 11 12 13 14 14 14 15 16 17 17
24 24 23 21 19 16 14 11 9 7 6 4 3 3 2 3 3 4 4 5 6 6 6 6 6 6 7 7 7 8 8 9 10 10 12 13 14 14 14 15 15 16 17
22 23 21 19 17 15 13 11 8 6 5 3 2 2 1 1 2 3 4 4 5 5 5 5 5 6 6 7 7 8 8 9 9 10 11 12 13 14 15 15 16 17 18
20 21 20 18 16 14 12 10 8 6 4 3 2 1 1 0 1 2 3 4 5 5 5 5 5 6 7 7 8 8 8 9 9 10 10 11 13 14 15 15 16 16 17
18 19 18 16 16 14 12 10 8 6 4 3 2 2 1 0 1 2 3 3 4 4 4 5 6 7 7 8 8 8 8 8 9 9 10 11 12 13 14 15 16 17 18
16 16 17 16 15 13 11 10 8 7 5 4 3 2 2 1 1 2 2 3 4 4 4 5 6 7 8 9 9 9 9 10 10 11 11 12 13 14 15 16 17 18 19
14 14 15 14 14 13 11 10 8 7 6 5 4 3 2 1 1 2 3 3 4 4 5 6 7 8 9 10 10 11 11 11 12 12 13 14 15 15 16 17 18 19 20
12 12 13 13 13 12 11 9 9 7 6 6 4 4 3 3 3 3 3 4 5 5 6 7 8 9 10 10 11 11 11 12 13 13 14 14 15 16 17 18 19 20 21
10 11 12 12 12 11 11 10 9 8 7 6 5 5 5 4 4 4 5 5 6 6 7 7 9 10 10 11 12 12 12 13 14 14 14 15 15 16 17 18 19 20 22
Wind_Direction
197 190 186 189 194 194 196 195 185 169 152 140 130 121 113 107 101 91 81 72 68 61 52 51 52 53 54 56 58 61 66 69 71 78 90 94 100 109 126 135 128 128 126
203 196 191 194 200 203 207 207 198 186 169 157 147 138 129 121 110 94 80 69 61 50 40 40 43 45 48 53 55 60 67 74 80 86 93 103 109 117 130 136 138 138 136
206 205 201 200 205 208 214 215 208 197 186 175 169 165 160 148 125 73 45 27 19 15 14 17 21 24 28 34 43 59 74 92 105 113 115 120 127 132 140 148 150 153 148
212 211 208 207 211 215 218 220 217 209 201 196 194 193 189 188 195 303 326 332 341 345 344 346 344 340 349 356 352 333 221 192 190 180 164 159 157 153 154 160 165 165 162
215 214 214 213 217 222 223 224 223 218 213 211 213 217 217 219 237 279 299 310 323 329 325 326 325 319 311 302 285 272 254 232 225 211 198 185 175 172 172 173 172 174 176
219 218 218 222 225 225 226 227 227 225 222 222 227 230 234 246 269 287 298 298 301 309 314 311 305 300 295 284 271 259 253 244 238 228 217 207 200 198 193 188 183 185 188
219 222 223 227 229 229 229 230 229 230 229 230 234 242 252 267 286 295 300 297 295 297 301 301 296 291 288 280 268 260 252 244 238 232 226 220 215 212 205 198 194 193 193
218 221 226 230 231 231 231 231 231 231 233 237 245 256 269 279 290 295 297 298 295 294 295 295 288 286 285 278 267 259 251 246 238 233 228 227 225 222 215 207 203 203 202
218 221 226 231 233 231 231 231 231 234 239 245 254 266 277 284 291 293 296 297 295 294 294 293 288 283 282 278 268 258 253 251 241 232 228 228 229 229 225 220 216 211 210
220 225 228 230 231 230 230 231 233 238 244 252 261 270 280 287 293 294 294 296 296 294 293 292 292 291 284 275 271 262 257 253 243 234 230 229 232 234 233 226 223 219 216
224 226 225 228 228 227 229 232 237 244 251 259 266 275 281 286 291 296 296 296 300 298 296 296 291 288 286 278 273 266 260 255 244 238 234 233 234 236 237 234 228 223 220
225 226 224 226 225 227 230 235 241 249 256 262 269 276 280 284 290 298 301 298 301 303 302 296 292 288 286 284 278 268 261 257 252 245 240 239 240 241 240 240 234 229 226
223 221 220 224 224 227 233 237 243 250 256 263 269 272 278 284 290 297 303 305 305 305 305 300 294 289 286 282 276 270 264 260 256 252 246 244 245 246 245 243 239 236 231
219 218 219 220 223 228 233 238 245 249 254 262 269 271 280 288 296 299 302 304 305 307 305 303 302 295 292 286 275 268 267 262 259 256 255 252 250 251 249 247 243 241 235
216 216 219 219 221 227 232 236 243 246 252 259 267 275 282 290 297 296 298 301 304 305 304 305 306 304 304 298 288 274 270 267 265 264 262 257 254 253 251 250 248 247 242
215 217 220 220 221 224 228 232 239 246 250 254 264 274 280 287 293 295 300 302 303 304 306 307 305 305 305 302 293 284 274 272 272 268 265 261 258 256 253 251 251 250 247
214 216 218 219 219 223 223 226 231 235 238 250 263 274 277 283 289 294 301 305 304 307 309 308 308 306 304 304 299 292 283 277 275 271 266 261 261 260 257 253 251 252 252
214 214 215 216 218 218 217 222 224 228 233 247 269 286 288 290 296 299 306 308 308 311 313 312 310 311 310 307 303 299 290 283 277 272 266 262 261 262 261 256 254 253 251
214 209 211 215 215 214 215 218 220 224 234 246 264 289 298 300 308 314 314 314 314 315 315 314 313 315 314 309 305 302 297 288 282 277 269 264 262 262 264 259 255 255 255
209 208 209 210 210 210 212 213 215 217 225 236 249 277 298 310 325 331 329 332 334 333 331 327 322 321 321 316 311 306 301 296 288 282 276 271 266 265 266 263 258 255 256
207 207 205 202 203 203 204 208 208 208 214 221 223 222 231 314 353 352 348 348 349 348 345 341 337 334 329 323 317 312 306 301 294 287 281 276 271 268 267 266 264 260 257
204 205 201 202 199 198 200 202 204 208 210 211 207 191 184 212 354 359 357 353 349 348 347 344 338 335 331 326 320 315 310 304 300 294 289 284 278 274 271 268 266 265 262
186 191 193 196 194 195 198 201 206 205 204 202 197 188 188 220 323 336 340 342 344 345 341 337 334 333 331 327 322 315 310 304 298 294 290 286 282 279 275 271 269 267 266
179 183 187 190 192 195 200 204 204 204 205 205 204 204 212 242 290 316 329 333 335 338 338 335 333 330 328 325 321 315 310 305 300 294 289 286 282 279 277 274 271 267 266
186 189 192 194 196 201 205 208 206 209 210 212 213 220 229 248 271 298 311 318 321 327 330 331 329 329 327 327 324 319 313 309 304 299 294 289 284 281 278 276 273 270 267
195 199 199 201 205 209 209 209 211 214 215 220 224 232 241 252 267 284 295 304 312 317 320 322 324 324 323 324 324 321 317 312 307 303 297 292 288 285 281 278 276 272 269
Height
5907 5907 5907 5908 5909 5909 5909 5910 5910 5910 5910 5910 5910 5910 5911 5911 5911 5911 5911 5911 5911 5911 5910 5910 5910 5910 5909 5909 5908 5908 5907 5907 5906 5905 5905 5904 5903 5903 5903 5903 5903 5903 5903
5906 5906 5907 5907 5908 5909 5909 5909 5909 5910 5910 5910 5910 5910 5910 5910 5911 5911 5911 5911 5911 5910 5910 5910 5910 5909 5909 5909 5908 5908 5908 5907 5906 5906 5905 5904 5904 5904 5904 5903 5904 5904 5904
5905 5905 5905 5906 5907 5908 5908 5909 5909 5909 5909 5909 5909 5909 5910 5910 5910 5911 5911 5911 5911 5910 5910 5910 5909 5909 5909 5908 5908 5908 5907 5907 5907 5906 5905 5905 5904 5904 5904 5904 5904 5905 5905
5903 5904 5904 5905 5906 5907 5907 5908 5908 5908 5908 5908 5909 5909 5909 5909 5910 5910 5910 5910 5910 5910 5909 5909 5909 5908 5908 5908 5908 5907 5907 5907 5906 5906 5905 5905 5904 5904 5905 5905 5905 5905 5906
5902 5902 5903 5904 5905 5906 5906 5907 5907 5907 5907 5908 5908 5908 5909 5909 5909 5909 5909 5909 5909 5909 5908 5908 5908 5908 5907 5907 5907 5907 5906 5906 5906 5905 5905 5904 5904 5904 5905 5905 5905 5905 5906
5900 5900 5901 5902 5903 5904 5905 5906 5906 5906 5907 5907 5907 5907 5908 5908 5908 5908 5908 5908 5908 5908 5907 5907 5907 5906 5906 5906 5906 5906 5905 5905 5905 5905 5904 5904 5904 5904 5904 5905 5905 5905 5906
5897 5898 5899 5900 5902 5903 5904 5904 5904 5905 5905 5905 5906 5906 5906 5907 5907 5907 5906 5906 5906 5906 5906 5905 5905 5905 5904 5904 5904 5904 5904 5904 5904 5904 5904 5904 5904 5904 5904 5904 5905 5905 5906
5895 5896 5897 5898 5900 5901 5902 5903 5903 5903 5904 5904 5904 5904 5905 5905 5905 5905 5904 5904 5904 5904 5904 5903 5903 5903 5902 5902 5902 5902 5902 5902 5902 5903 5903 5903 5903 5903 5904 5904 5904 5905 5906
5892 5894 5895 5896 5898 5899 5900 5901 5901 5902 5902 5902 5902 5902 5903 5903 5903 5902 5902 5902 5902 5902 5901 5901 5900 5900 5900 5899 5899 5900 5900 5900 5900 5901 5901 5901 5902 5902 5903 5903 5903 5904 5905
5890 5891 5893 5894 5896 5897 5898 5899 5899 5900 5900 5900 5900 5900 5900 5900 5900 5900 5900 5899 5899 5899 5898 5898 5898 5897 5897 5897 5897 5897 5897 5897 5898 5898 5899 5899 5900 5901 5901 5902 5902 5903 5904
5887 5888 5890 5892 5893 5894 5895 5896 5897 5897 5898 5898 5898 5898 5898 5898 5897 5897 5897 5897 5896 5896 5895 5895 5895 5894 5894 5894 5894 5894 5894 5895 5895 5896 5896 5897 5898 5898 5899 5899 5900 5901 5902
5883 5885 5887 5889 5890 5892 5893 5894 5895 5895 5896 5896 5896 5896 5896 5896 5895 5895 5894 5894 5894 5893 5893 5892 5892 5892 5891 5891 5891 5891 5892 5892 5892 5893 5894 5894 5895 5896 5896 5897 5898 5899 5900
5880 5882 5884 5886 5888 5889 5891 5892 5893 5893 5893 5893 5894 5894 5894 5893 5893 5892 5892 5892 5891 5891 5890 5890 5889 5889 5889 5889 5889 5889 5889 5889 5889 5890 5891 5891 5892 5893 5893 5894 5895 5896 5897
5877 5879 5881 5883 5885 5887 5889 5890 5890 5891 5891 5891 5891 5891 5891 5891 5891 5890 5890 5889 5889 5888 5888 5888 5887 5887 5887 5886 5886 5886 5886 5886 5886 5887 5887 5888 5889 5889 5890 5890 5892 5893 5894
5873 5876 5879 5881 5883 5885 5886 5887 5888 5888 5889 5889 5889 5889 5889 5889 5889 5888 5888 5887 5887 5886 5886 5885 5885 5885 5884 5884 5883 5883 5883 5884 5884 5884 5884 5885 5885 5886 5886 5887 5888 5889 5891
5870 5873 5876 5878 5880 5882 5884 5885 5886 5886 5887 5887 5887 5887 5887 5887 5887 5887 5886 5886 5885 5885 5884 5883 5883 5882 5882 5882 5881 5881 5881 5881 5881 5881 5881 5881 5882 5882 5883 5884 5885 5886 5887
5867 5870 5873 5875 5877 5879 5881 5883 5884 5884 5885 5885 5885 5885 5885 5885 5885 5885 5885 5884 5883 5883 5882 5882 5881 5880 5880 5880 5879 5879 5879 5878 5878 5878 5878 5878 5879 5879 5880 5880 5881 5882 5883
5864 5866 5869 5872 5875 5877 5879 5880 5882 5883 5884 5884 5883 5883 5883 5883 5883 5883 5883 5882 5882 5881 5881 5880 5880 5879 5878 5878 5877 5877 5876 5876 5876 5876 5876 5876 5876 5876 5877 5877 5878 5879 5879
5860 5864 5867 5869 5872 5875 5877 5879 5880 5881 5882 5882 5882 5882 5882 5882 5882 5882 5881 5881 5881 5880 5879 5879 5878 5877 5877 5876 5876 5875 5875 5874 5874 5873 5873 5873 5873 5873 5873 5874 5874 5875 5876
5858 5861 5864 5867 5870 5872 5875 5877 5878 5880 5881 5881 5881 5881 5881 5881 5881 5880 5880 5880 5879 5879 5878 5877 5877 5876 5875 5875 5874 5873 5873 5872 5871 5871 5871 5870 5870 5870 5871 5871 5871 5872 5872
5855 5859 5862 5865 5868 5871 5873 5875 5877 5878 5879 5880 5880 5880 5880 5880 5880 5880 5879 5879 5878 5878 5877 5876 5876 5875 5874 5873 5873 5872 5871 5870 5869 5869 5868 5868 5868 5868 5868 5868 5868 5868 5869
5853 5857 5860 5863 5867 5870 5872 5874 5876 5877 5878 5879 5879 5879 5880 5880 5879 5879 5878 5878 5877 5877 5876 5875 5874 5874 5873 5872 5871 5870 5870 5869 5868 5867 5866 5865 5865 5865 5865 5865 5865 5865 5865
5853 5856 5860 5863 5866 5869 5871 5873 5875 5876 5877 5878 5878 5879 5879 5879 5879 5878 5878 5877 5877 5876 5875 5874 5873 5872 5871 5870 5869 5869 5868 5867 5866 5865 5864 5863 5862 5862 5862 5861 5861 5861 5861
5854 5857 5860 5863 5865 5868 5870 5872 5873 5875 5876 5877 5877 5878 5878 5878 5878 5877 5877 5876 5876 5875 5874 5873 5872 5871 5870 5869 5867 5866 5865 5864 5863 5862 5861 5860 5859 5859 5858 5858 5857 5857 5857
5855 5857 5860 5863 5865 5867 5869 5871 5872 5873 5874 5875 5876 5876 5877 5877 5876 5876 5876 5875 5875 5874 5873 5872 5870 5869 5868 5867 5865 5864 5862 5861 5859 5859 5858 5857 5856 5855 5854 5853 5853 5853 5852
5855 5858 5860 5862 5864 5866 5868 5869 5871 5872 5873 5874 5875 5875 5875 5875 5875 5875 5874 5874 5873 5872 5871 5870 5869 5867 5866 5864 5863 5861 5859 5858 5856 5855 5854 5852 5852 5851 5850 5849 5848 5848 5847